{"data":{"norad_id":33408,"intl_designator":"2008-053A","name":"SHIJIAN-6 03A (SJ-6 03A)","alt_names":[],"object_type":"PAYLOAD","status":"ACTIVE","operator":null,"country":"PRC","launch_date":"2008-10-25","launch_site_code":"TAISC","launch_vehicle":null,"mission":null,"orbit_class":"UNKNOWN","rcs_meters":1.301,"size_class":null,"mass_kg":null,"dimensions":null,"purposes":[],"wikipedia_slug":null,"has_3d_model":false,"image_url":null,"decayed_at":null,"tle_current":{"epoch":"2026-09-20T04:41:27.168576Z","epoch_age_seconds":44604,"freshness":"FRESH","line1":"1 33408U 08053A   26263.19545334  .00002939  00000+0  14828-3 0  9995","line2":"2 33408  97.8348 299.8395 0012262  50.3629 309.8684 15.17922397977379","mean_motion":15.17922397,"eccentricity":0.0012262,"inclination_deg":97.8348,"raan_deg":299.8395,"arg_perigee_deg":50.3629,"mean_anomaly_deg":309.8684,"bstar":0.00014828,"rev_number":97737,"period_min":94.866509832518,"perigee_km":503.67181624106,"apogee_km":520.56948410234,"semimajor_km":6890.2576501717,"source":"CELESTRAK","updated_at":"2026-09-20T09:00:13.699149Z"}}}